Location: Barrialote
(9.9333°N, 67.3500°W)
Time: 14:25:15
(UTC+00:00)

Cosmos 1674 Rocket - Pass Details

Date: 18 April 2024
Orbit: 600 x 626 km, 82.5° (Epoch: 24 May)

Event Time Altitude Azimuth Distance (km) Brightness Sun altitude
Rises 23:34:26 0° 348° (NNW) 2,899 7.4 -13.9°
Reaches altitude 10° 23:36:42 10° 343° (NNW) 1,991 6.6 -14.4°
Maximum altitude 23:40:59 53° 267° (W) 769 4.4 -15.5°
Drops below altitude 10° 23:45:16 10° 190° (S) 1,982 6.1 -16.5°
Sets 23:47:32 0° 185° (S) 2,884 6.9 -17.0°
